www.pogodaiklimat.ru

Погода и климат >> Архив погоды >> Словакия >> Дудинце


ПОГОДА в Дудинце

  • Прогноз погоды в Дудинце
  • Монитор погоды в Дудинце

АРХИВ ПОГОДЫ в Дудинце

Время (UTC), дата Ветер
(напр.,м/с)
 
Видим.   Явления Облачность Т
(С)
Тd
(С)
f
(%)
Тe
(С)
Тes
(С)
Комфортность P
(гПа)
Po
(гПа)
Тmin
(С)
Tmax
(С)
R
(мм)
R24
(мм)
S
(см)
01 18.08 н/о н/о +15.6 +13.3 86 1015.5 998.9
02 18.08 н/о н/о +15.8 +13.5 86 1015.5 998.9
03 18.08 н/о н/о +15.9 +14.1 89 1015.3 998.7
04 18.08 штиль 0 н/о н/о +16.1 +13.9 87 +16 +16 1015.3 998.7
05 18.08 н/о н/о +16.7 +14.0 84 1015.2 998.7
06 18.08 нст 1 20 км 10/3 900 м
[Sc Ac As]
+18.0 +14.7 81 +19 +20 1015.4 998.9 +15.5
07 18.08 СВ 2 20 км 10/5 900 м
[Sc Ac As]
+19.9 +15.1 74 +23 +24 комфорт 1014.9 998.5
08 18.08 25 км 10/6 900 м
[Sc Ac As]
+21.1 +15.0 68 1015.3 999.0
09 18.08 В 2 28 км 10/0
[Ac As]
+23.2 +15.3 61 +27 +31 душно 1014.7 998.5
10 18.08 25 км 5/5 1000 м
[Sc]
+24.8 +15.4 56 1014.8 998.7
11 18.08 С 2 25 км 1/0
[Ac lent]
+26.6 +15.4 50 +29 +43 жарко 1014.3 998.3
12 18.08 нст 2 30 км 1/0
[Ac lent]
+28.1 +15.1 45 +31 +43 душно 1013.7 997.8
13 18.08 Ю 2 30 км 1/0
[Ac lent]
+29.6 +14.6 40 +32 +42 душно 1013.4 997.6
14 18.08 Ю 2 30 км ясно +30.5 +14.6 38 +33 +40 душно 1012.9 997.1
15 18.08 Ю 2 30 км ясно +30.6 +14.3 37 +32 +37 жарко 1012.8 997.0
16 18.08 Ю 2 30 км ясно +30.3 +13.6 36 +32 +34 жарко 1012.6 996.8
17 18.08 30 км ясно +29.5 +14.5 40 1012.8 997.0
18 18.08 нст 1 30 км ясно +27.1 +15.8 50 +30 +30 душно 1013.0 997.1 +30.8
19 18.08 штиль 0 25 км ясно +22.8 +16.1 66 +27 +27 душно 1014.1 997.9
20 18.08 В 1 25 км ясно +21.0 +16.2 74 +26 +26 душно 1014.3 998.0
21 18.08 н/о н/о +19.4 +15.7 79 1014.7 998.3
22 18.08 штиль 0 н/о н/о +18.2 +15.1 82 +18 +18 1015.0 998.5
23 18.08 н/о н/о +17.6 +15.2 86 1015.2 998.7
00 19.08 н/о н/о +17.0 +15.0 88 1015.2 998.7
01 19.08 н/о н/о +16.3 +14.5 89 1015.2 998.6
02 19.08 н/о н/о +16.0 +14.5 91 1015.4 998.8
03 19.08 н/о н/о +15.8 +14.3 91 1015.7 999.1
04 19.08 н/о н/о +15.5 +14.2 92 1015.9 999.3
05 19.08 н/о н/о +16.9 +15.1 89 1016.1 999.6
06 19.08 СВ 2 30 км 3/0
[Ac trans]
+21.6 +16.4 72 +25 +28 комфорт 1016.2 999.9 +15.3
07 19.08 СВ 2 30 км 4/0
[Ac trans]
+24.1 +16.9 64 +28 +32 душно 1016.1 1000.0
08 19.08 В 3 30 км 1/0
[Ac trans]
+26.0 +15.7 53 +29 +36 душно 1015.8 999.8
09 19.08 В 2 30 км ясно +28.2 +16.8 50 +32 +44 душно 1015.7 999.8
10 19.08 30 км 1/0
[Ac lent]
+29.8 +16.6 45 1015.5 999.7
11 19.08 Ю 3 30 км 1/1 1500 м
[Cu hum Ac lent]
+30.8 +16.1 41 +34 +44 очень
душно
1015.4 999.6
12 19.08 нст 2 30 км 4/1 1500 м
[Cu hum Ac trans]
+31.2 +16.0 40 +34 +44 душно 1015.4 999.6
13 19.08 ЮЗ 2 30 км 4/1 1500 м
[Cu hum Ac trans]
+32.0 +15.5 37 +34 +42 душно 1015.2 999.5
14 19.08 ЮЗ 3 30 км 3/1 1500 м
[Cu hum Ac trans]
+32.9 +14.5 33 +34 +39 очень
жарко
1015.2 999.5
15 19.08 З 2 30 км 1/1 1500 м
[Cu hum Ac trans]
+32.6 +16.1 37 +35 +39 душно 1015.0 999.3
16 19.08 ЮЗ 2 30 км 1/1 1500 м
[Cu hum Ac trans Ci fib]
+31.9 +16.3 39 +35 +36 очень
душно
1015.0 999.3
17 19.08 30 км 1/0
[Ac trans Ci fib]
+30.8 +16.8 43 1015.2 999.4
18 19.08 нст 1 30 км 1/0
[Ac trans Ci fib]
+26.9 +18.0 58 +31 +31 душно 1015.7 999.7 +33.1
19 19.08 В 2 20 км 1/0
[Ac trans Ci fib]
+24.0 +18.2 70 +28 +28 душно 1016.3 1000.2
20 19.08 20 км ясно +22.2 +18.0 77 1017.2 1000.9
21 19.08 н/о н/о +21.1 +17.7 81 1017.6 1001.3
22 19.08 н/о н/о +20.0 +17.2 84 1017.6 1001.2
23 19.08 н/о н/о +19.3 +16.9 86 1017.6 1001.2
00 20.08 штиль 0 н/о н/о +19.0 +16.8 87 +20 +20 1017.5 1001.1
01 20.08 штиль 0 н/о н/о +18.0 +16.3 90 +18 +18 1017.8 1001.3
02 20.08 штиль 0 н/о н/о +17.2 +15.6 90 +17 +17 1018.0 1001.4
03 20.08 штиль 0 н/о н/о +17.6 +16.1 91 +18 +18 1018.2 1001.7
04 20.08 штиль 0 н/о н/о +17.0 +15.7 92 +17 +17 1018.6 1002.0
05 20.08 штиль 0 н/о н/о +18.0 +16.7 92 +18 +18 1018.9 1002.4
06 20.08 нст 1 25 км 3/0
[Ac trans]
+22.2 +16.9 72 +27 +29 душно 1018.9 1002.6 +17.0
07 20.08 30 км 3/0
[Ac trans Ci fib]
+24.8 +17.6 64 1018.7 1002.6
08 20.08 30 км 5/0
[Ac trans Ci sp]
+28.0 +16.3 49 1018.7 1002.7
09 20.08 нст 1 30 км 6/0
[Ci sp]
+29.4 +16.3 45 +33 +45 душно 1018.7 1002.8
10 20.08 30 км 6/1 1500 м
[Cu hum Ac lent Ci sp]
+30.9 +15.8 40 1018.6 1002.8
11 20.08 30 км 6/1 1500 м
[Cu hum Ci sp]
+31.7 +18.3 45 1018.5 1002.7
12 20.08 нст 2 30 км 8/1 1500 м
[Cu hum Ci sp]
+31.5 +16.7 41 +35 +45 очень
душно
1018.5 1002.7
13 20.08 30 км 5/1 1500 м
[Cu hum Ci sp]
+32.6 +17.7 41 1017.5 1001.8
14 20.08 30 км 3/3 1380 м
[Cu hum Ci fib]
+32.7 +17.4 40 1017.4 1001.7
15 20.08 нст 1 30 км 3/3 1380 м
[Cu hum]
+32.4 +17.1 40 +36 +39 очень
душно
1017.2 1001.5
16 20.08 30 км 1/1 1380 м
[Cu med, cong Ci fib]
+32.3 +17.8 42 1016.8 1001.1
17 20.08 нст 1 30 км 3/1 1380 м
[Cu hum Ac trans Ci sp]
+31.1 +18.2 46 +36 +36 очень
душно
1016.8 1001.0
18 20.08 СВ 1 30 км 3/0
[Ac trans Ci sp]
+27.6 +19.2 60 +33 +33 очень
душно
1017.0 1001.1 +33.4
19 20.08 З 1 20 км 3/0
[Ac trans Ci fib]
+24.7 +19.3 72 +30 +30 очень
душно
1017.5 1001.4
20 20.08 20 км 1/0
[Ac trans Ci fib]
+23.1 +18.9 77 1017.7 1001.5
21 20.08 В 1 н/о н/о +22.1 +18.7 81 +27 +27 душно 1017.6 1001.4
22 20.08 н/о н/о +21.0 +18.2 84 1017.7 1001.4
23 20.08 н/о н/о +20.2 +17.8 86 1017.9 1001.5
00 21.08 н/о н/о +19.8 +17.4 86 1017.8 1001.4
01 21.08 н/о н/о +19.3 +17.1 87 1018.3 1001.9
02 21.08 н/о н/о +19.2 +16.6 85 1018.4 1002.0
03 21.08 штиль 0 н/о н/о +18.8 +16.4 86 +20 +20 1019.0 1002.5
04 21.08 н/о н/о +18.1 +16.3 89 1019.7 1003.2
05 21.08 н/о н/о +18.7 +16.7 88 1020.5 1004.0
06 21.08 ЮЗ 2 15 км 8/4 1080 м
[Cu hum Ac lent]
+22.3 +18.1 77 +27 +28 душно 1020.8 1004.5 +17.8
07 21.08 З 4 20 км 5/3 1200 м
[Cu hum Ac lent]
+23.6 +17.8 70 +28 +30 душно 1021.1 1004.9
08 21.08 З 5 25 км 4/3 1380 м
[Cu hum Ac lent]
+25.6 +17.8 62 +30 +33 душно 1021.3 1005.2
09 21.08 З 5 30 км 4/1 1380 м
[Cu med, cong Ac lent]
+26.6 +17.1 56 +31 +35 душно 1021.3 1005.2
10 21.08 З 4 30 км 4/1 1380 м
[Cu med, cong Ac lent Ci sp]
+27.7 +17.6 54 +32 +39 очень
душно
1020.9 1004.9
11 21.08 З 5 30 км 3/1 1380 м
[Cu med, cong Ac lent]
+28.5 +17.4 51 +33 +38 очень
душно
1020.6 1004.6
12 21.08 З 5 30 км 3/1 1500 м
[Cu med, cong Ac lent]
+29.1 +17.6 50 +33 +38 очень
душно
1020.5 1004.6
13 21.08 З 5 30 км 4/1 1500 м
[Cu med, cong Ac lent Ci]
+29.1 +16.3 46 +32 +37 душно 1020.3 1004.4
14 21.08 З 5 30 км 5/1 1500 м
[Cu med, cong Ac lent Cs]
+29.2 +15.7 44 +32 +35 душно 1020.3 1004.4
15 21.08 З 4 30 км 6/1 1500 м
[Cu med, cong Ac lent Cs]
+26.5 +14.6 48 +29 +31 жарко 1020.6 1004.5
16 21.08 З 4 30 км 9/1 1500 м
[Cu med, cong Ac As Cs]
+24.7 +14.8 54 +27 +28 жарко 1021.0 1004.8
17 21.08 30 км 10/4 1500 м
[Cu med, cong Ac As Cs]
+24.0 +14.7 56 1021.2 1005.0
18 21.08 нст 1 25 км гроза без осадков 10/5 1500 м
[Cb cap Ac As Cs]
+22.6 +14.7 61 +26 +26 жарко 1021.7 1005.4 +29.4
19 21.08 25 км в посл. час гроза 10/5 1500 м
[Cb cap Ac As]
+21.8 +15.2 66 1022.4 1006.0
20 21.08 25 км 10/4 1500 м
[Cb cap Ac As]
+20.1 +14.9 72 1023.1 1006.6
21 21.08 н/о н/о +19.5 +14.5 73 1023.3 1006.8
22 21.08 н/о н/о +18.9 +14.4 75 1023.7 1007.1
23 21.08 н/о н/о +18.6 +14.3 76 1023.8 1007.2
00 22.08 н/о н/о +18.3 +14.8 80 1023.9 1007.3
01 22.08 н/о н/о +17.3 +14.9 86 1024.0 1007.3
02 22.08 н/о н/о +16.0 +14.2 89 1023.9 1007.2
03 22.08 н/о н/о +15.5 +14.2 92 1024.1 1007.3
04 22.08 З 1 н/о н/о +14.9 +13.6 92 +15 +15 1024.3 1007.5
05 22.08 штиль 0 н/о н/о +15.6 +14.5 93 +15 +15 1024.7 1007.9
06 22.08 штиль 0 15 км 9/0
[Ac As]
+17.4 +15.2 87 +17 +19 1024.8 1008.1 +14.9
07 22.08 20 км 10/10 1080 м
[Sc]
+19.1 +15.6 80 1024.8 1008.2
08 22.08 штиль 0 25 км 10/10 1200 м
[Sc]
+20.4 +15.8 75 +23 +23 комфорт 1024.9 1008.4
09 22.08 штиль 0 25 км 10/10 1300 м
[Sc]
+21.7 +16.0 70 +25 +25 комфорт 1024.8 1008.4
10 22.08 30 км 10/10 1380 м
[Sc]
+24.2 +16.5 62 1024.2 1007.9
11 22.08 30 км 9/9 1500 м
[Sc]
+26.6 +16.6 54 1023.5 1007.4
12 22.08 нст 1 25 км 10/5 1500 м
[Sc Ac As]
+25.9 +15.9 54 +29 +31 душно 1023.5 1007.3
13 22.08 25 км 9/5 1500 м
[Sc Ac As]
+26.0 +17.1 58 1023.1 1007.0
14 22.08 СВ 3 25 км 6/3 1500 м
[Sc Ac lent]
+27.6 +16.3 50 +31 +34 душно 1022.8 1006.7
15 22.08 нст 2 25 км 8/1 1500 м
[Sc Ac lent Cs]
+27.4 +17.0 53 +31 +33 душно 1022.8 1006.7
16 22.08 СВ 2 25 км 9/5 1500 м
[Cu med, cong Ac As]
+26.7 +17.5 57 +31 +31 душно 1022.5 1006.4
17 22.08 25 км 9/5 1500 м
[Cu med, cong Ac As Ci fib]
+25.4 +17.9 63 1022.8 1006.6
18 22.08 нст 2 25 км 9/9 1500 м
[Cb cap]
+23.7 +17.9 70 +28 +28 душно 1023.1 1006.8 +27.8
19 22.08 СВ 2 25 км в посл. час гроза 10/3 1500 м
[Cb cap Ac As]
+22.7 +17.6 73 +28 +28 душно 1023.8 1007.5
20 22.08 25 км 10/10 1300 м
[Sc]
+21.8 +17.4 76 1024.1 1007.7
21 22.08 н/о н/о +20.9 +17.9 83 1023.9 1007.5
22 22.08 н/о н/о +20.6 +18.0 85 1024.4 1007.9
23 22.08 н/о н/о +20.2 +18.2 88 1024.2 1007.7
00 23.08 н/о н/о +19.6 +17.6 88 1024.1 1007.6 0.4
01 23.08 н/о н/о +19.5 +17.3 87 1024.0 1007.5
02 23.08 н/о н/о +19.2 +17.5 90 1024.0 1007.5
03 23.08 С 2 н/о н/о +19.2 +17.5 90 +22 +22 комфорт 1024.0 1007.5
04 23.08 н/о н/о +19.2 +17.5 90 1024.0 1007.5
05 23.08 н/о н/о +19.2 +17.5 90 1024.0 1007.5
06 23.08 нст 2 10 км в посл. час дождь {гроза} 9/9 1200 м
[Cu Sc]
+18.7 +17.7 94 +20 +21 1024.6 1008.0 +18.6 27
07 23.08 12 км 9/9 1200 м
[Cu Sc]
+20.0 +18.7 92 1024.8 1008.3
08 23.08 В 2 15 км 6/3 1300 м
[Sc Ac lent]
+22.0 +18.6 81 +27 +31 душно 1024.8 1008.4
09 23.08 нст 1 20 км 6/0
[Ac lent Ci fib]
+24.6 +18.3 68 +29 +37 душно 1024.4 1008.2
10 23.08 25 км 6/0
[Ac lent Ci fib]
+26.2 +18.9 64 1024.0 1007.9
11 23.08 25 км 8/0
[Ac lent Ci fib]
+27.2 +19.0 61 1023.7 1007.6
12 23.08 ЮЗ 2 25 км 6/1 1500 м
[Cu med, cong Ac lent Ci fib]
+26.6 +20.5 69 +33 +41 очень
душно
1023.2 1007.1
13 23.08 25 км 6/4 1200 м
[Cb cap Ac lent]
+27.4 +21.0 68 1023.1 1007.1
14 23.08 25 км 3/3 1500 м
[Cb cap]
+28.6 +20.1 60 1022.5 1006.5
15 23.08 нст 1 25 км 5/3 1500 м
[Cb cap Ci fib]
+29.1 +19.4 56 +35 +38 очень
душно
1022.2 1006.2
16 23.08 СВ 4 25 км 5/5 1500 м
[Cb cap Ci fib]
+26.8 +17.6 57 +31 +32 душно 1022.7 1006.6
17 23.08 СВ 3 25 км 4/3 1500 м
[Cu med, cong Ac cuf Ci ing]
+24.4 +17.4 65 +28 +28 душно 1022.7 1006.5
18 23.08 нст 2 25 км 4/0
[Ac lent Ci fib]
+22.3 +17.0 72 +27 +27 душно 1023.0 1006.7 +29.4
19 23.08 25 км 3/0
[Ac lent Ci fib]
+20.9 +17.1 79 1023.5 1007.1
20 23.08 20 км 3/0
[Ac lent]
+20.5 +17.3 82 1023.3 1006.9
21 23.08 н/о н/о +19.7 +17.1 85 1023.1 1006.6
22 23.08 СВ 2 н/о н/о +19.2 +17.3 89 +22 +22 комфорт 1023.2 1006.7
23 23.08 н/о н/о +19.0 +17.2 89 1023.3 1006.8
00 24.08 н/о н/о +18.6 +17.1 91 1023.2 1006.6
01 24.08 н/о н/о +18.6 +17.3 92 1022.9 1006.4
02 24.08 СВ 2 н/о н/о +18.6 +17.1 91 +20 +20 1022.8 1006.3
03 24.08 СВ 2 н/о н/о +18.4 +16.9 91 +20 +20 1022.8 1006.2
04 24.08 н/о н/о +18.1 +16.8 92 1022.8 1006.2
05 24.08 н/о н/о +18.6 +17.1 91 1022.8 1006.3
06 24.08 нст 1 20 км 4/0
[Ci sp]
+21.1 +17.5 80 +25 +28 комфорт 1022.6 1006.2 +18.1
07 24.08 25 км 4/0
[Ci sp]
+23.6 +18.0 71 1022.4 1006.1
08 24.08 30 км 6/0
[Ci sp]
+26.1 +18.8 64 1021.9 1005.8
09 24.08 нст 1 30 км 6/0
[Ci sp]
+27.0 +19.4 63 +33 +44 очень
душно
1021.8 1005.8
10 24.08 30 км 8/0
[Ci sp]
+29.1 +17.6 50 1021.2 1005.3
11 24.08 30 км 8/1 1300 м
[Cu hum Ci sp]
+30.0 +17.8 48 1020.9 1005.0
12 24.08 В 2 30 км 8/1 1380 м
[Cu hum Ac lent Ci sp]
+30.4 +16.4 43 +34 +41 очень
душно
1020.4 1004.5
13 24.08 30 км 8/1 1380 м
[Cu hum Ac lent Ci sp]
+30.5 +17.6 46 1020.2 1004.3
14 24.08 30 км 8/1 1380 м
[Cu hum Ac lent Ci sp]
+30.6 +17.4 45 1019.8 1003.9
15 24.08 нст 2 30 км 9/1 1380 м
[Cu hum Cs]
+30.1 +17.9 48 +35 +37 очень
душно
1019.5 1003.6
16 24.08 30 км 9/1 1380 м
[Cu hum Cs]
+29.1 +18.6 53 1019.4 1003.5
17 24.08 30 км 8/1 1500 м
[Cu hum Ac lent Ci sp]
+27.6 +19.7 62 1019.6 1003.6
18 24.08 штиль 0 20 км 8/1 1500 м
[Cu med, cong Ac trans Ci sp]
+25.2 +19.8 72 +31 +31 очень
душно
1020.0 1003.9 +31.2
19 24.08 20 км 6/0
[Ac trans Ci sp]
+23.6 +19.8 79 1020.1 1003.9
20 24.08 штиль 0 20 км 4/0
[Ac trans Ci sp]
+22.2 +19.4 84 +28 +28 душно 1020.4 1004.1
21 24.08 н/о н/о +21.3 +18.7 85 1020.4 1004.1
22 24.08 н/о н/о +20.7 +18.3 86 1020.3 1003.9
23 24.08 н/о н/о +20.2 +18.0 87 1020.3 1003.9
00 25.08 н/о н/о +20.1 +17.7 86 1019.9 1003.5
01 25.08 н/о н/о +20.0 +17.6 86 1019.8 1003.4

 

Местоположение метеостанции Дудинце (Словакия): широта 48.17 долгота 18.87 высота над уровнем моря 140 м.

В архиве по умолчанию представлена погода в Дудинце за последнюю неделю. Архивные данные за месяц целиком и за предыдущие месяцы, начиная с января 2011 года, Вы можете получить, выбрав интересующий диапазон дат из раскрывающегося списка и нажав кнопку "Ввод!".


*Определитесь, кто Вы:
робот инопланетянин человек

Внимание! Время в таблицах - всемирное. Для получения местного времени необходимо прибавить поправку, которая равна 1 ч.

Смотрите также архив погоды в соседних городах и на ближайших метеорологических станциях:

Погода в Моховце (Словакия) (33 км)
Погода в Жьяр-над-Гроном (Словакия) (46 км)
Погода в Сечене (Польша) (49 км)
Погода в Тате (Венгрия) (51 км)
Погода в Нитре (Словакия) (56 км)
Погода в Слиаче (Словакия) (57 км)
Погода в Гурбаново (Словакия) (60 км)
Погода в Лученце (Словакия) (66 км)
Погода в Прьевидзе (Словакия) (70 км)
Погода в Тате (Венгрия) (71 км)

Пояснения к столбцам:

Ветер - указаны скорость ветра в м/с - средняя за 10 мин, порывы в срок и между сроками (в фигурных скобках) и направление, откуда дует ветер: С - северный, СВ - северо-восточный, В - восточный, ЮВ - юго-восточный, Ю - южный, ЮЗ - юго-западный, З - западный, СЗ - северо-западный.
Видимость - горизонтальная дальность видимости в метрах или километрах. При видимости от 1 до 10 км при отсутствии осадков обычно наблюдается дымка, при ухудшении видимости до 1 км и менее - туман. В сухую погоду видимость может ухудшаться дымом, пылью или мглою.
Явления - указаны атмосферные явления, наблюдавшиеся в срок или в последний час перед сроком; фигурными скобками обозначены явления, наблюдавшиеся между сроками (за 1-3 часа до срока); квадратными скобками обозначены град или гололедные отложения с указанием их диаметра в мм.
Облачность - указаны через наклонную черту общая и нижняя облачность в баллах и высота нижней границы облаков в метрах; квадратными скобками обозначены формы облаков: Ci - перистые, Cs - перисто-слоистые, Cc - перисто-кучевые, Ac - высококучевые, As - высокослоистые, Sc - слоисто-кучевые, Ns - слоисто-дождевые, Cu - кучевые, Cb - кучево-дождевые. Подробнее классификацию облаков см. в Атласе облаков (PDF).
T - Температура воздуха - температура, измеренная на высоте 2 м над землей.
Td - Температура точки росы - температура, при понижении до которой содержащийся в воздухе водяной пар достигнет насыщения.
f - Относительная влажность воздуха - влажноcть воздуха, измеренная на высоте 2 м над землей.
Te - Эффективная температура - температура, которую ощущает одетый по сезону человек в тени. Характеристика душности погоды. При расчете учитывается влияние влажности воздуха и скорости ветра на теплоощущения человека.
Tes - Эффективная температура на солнце - температура, которую ощущает человек, с поправкой на солнечный нагрев. Характеристика знойности погоды. Зависит от высоты солнца над горизонтом, облачности и скорости ветра. Ночью, в пасмурную погоду, а также при ветре 12 м/с и более поправка равна нулю.
P - Атмосферное давление - приведенное к уровню моря атмосферное давление.
Po - Атмосферное давление - измеренное на уровне метеостанции атмосферное давление.
Tmin - Минимальная температура - минимум температуры воздуха на высоте 2 м над землей.
Tmax - Максимальная температура - максимум температуры воздуха на высоте 2 м над землей.
R - Количество осадков - Количество выпавших осадков за период времени, мм. При наведении курсора мыши на число - период времени, за который выпало указанное количество осадков.
R24 - Количество осадков - Количество выпавших осадков за 24 часа, мм.
S - Снежный покров - Высота снежного покрова, см. При наведении курсора мыши на число - состояние снежного покрова и степень покрытия местности в баллах.